Flag for Japan Weather past 2 weeks in Nagoya, Japan

Now
63 °F

Partly sunny.


Feels Like: 63 °F
Forecast: 49 / 72 °F
Wind: 6 mph from West

Location: Nagoya Airport

Current Time: Apr 22, 2015 at 11:50:28 AM

Latest Report: Apr 22, 2015 at 11:30 AM


Visibility: N/A

Pressure: 30.07 "Hg

Humidity: 68%

Dew point: 52 °F

Location of NagoyaLocation

Historic Weather in Nagoya — Graph

°F

Nagoya temperature yesterday

Maximum temperature yesterday: 63 °F (at 1:00 PM)
Minimum temperature yesterday: 55 °F (at 3:00 AM)
Average temperature yesterday: 58 °F

Past Weeks' High & Low Weather Summary

 TemperatureHumidityPressure
High68 °F (Apr 16, 1:30 PM)100% (Apr 10, 11:30 PM)30.36 "Hg (Apr 10, 11:30 PM)
Low43 °F (Apr 18, 5:30 AM)26% (Apr 18, 3:00 PM)29.53 "Hg (Apr 20, 4:00 PM)
Average56 °F74%30.00 "Hg
* Reported Apr 7 11:00 AM — Apr 22 11:00 AM, Nagoya, Weather by CustomWeather, © 2015

Note: Actual official high and low records may vary slightly from our data, if they occured in-between our weather recording intervals... More about our weather records

Advertising

Nagoya weather history for previous 24 hours

 ConditionsComfort  
Time TempWeatherWind HumidityBarometerVisibility
11:00 AM
Wed, Apr 22
63 °FBroken clouds.7 mph68%30.07 "HgN/A
10:30 AM63 °FBroken clouds.7 mph68%30.07 "HgN/A
10:00 AM61 °FPartly sunny.5 mph72%30.07 "HgN/A
9:30 AM59 °FPartly sunny.6 mph72%30.07 "HgN/A
9:00 AM61 °FPassing clouds.6 mph72%30.07 "HgN/A
8:30 AM59 °FScattered clouds.6 mph68%30.07 "HgN/A
8:00 AM57 °FPartly sunny.5 mph72%30.07 "HgN/A
7:30 AM57 °FBroken clouds.5 mph72%30.07 "HgN/A
7:00 AM55 °FPartly sunny.6 mph82%30.07 "HgN/A
6:30 AM55 °FBroken clouds.5 mph82%30.04 "HgN/A
6:00 AM55 °FBroken clouds.3 mph77%30.04 "HgN/A
5:30 AM54 °FBroken clouds.5 mph82%30.04 "HgN/A
5:00 AM54 °FPartly cloudy.6 mph77%30.04 "HgN/A
4:30 AM55 °FPassing clouds.5 mph77%30.04 "HgN/A
4:00 AM57 °FPassing clouds.5 mph67%30.04 "HgN/A
3:30 AM55 °FPassing clouds.5 mph77%30.04 "HgN/A
3:00 AM55 °FPassing clouds.6 mph77%30.01 "HgN/A
2:30 AM57 °FPassing clouds.7 mph67%30.01 "HgN/A
2:00 AM57 °FPassing clouds.8 mph67%30.01 "HgN/A
1:30 AM55 °FPassing clouds.8 mph77%30.01 "HgN/A
1:00 AM55 °FPassing clouds.8 mph82%30.01 "HgN/A
12:30 AM55 °FPassing clouds.7 mph82%30.01 "HgN/A
12:00 AM55 °FPassing clouds.7 mph82%30.01 "HgN/A
11:30 PM
Tue, Apr 21
55 °FPassing clouds.9 mph77%29.98 "HgN/A
11:00 PM57 °FPassing clouds.10 mph72%29.98 "HgN/A
10:30 PM57 °FPassing clouds.10 mph72%29.98 "HgN/A
10:00 PM55 °FPassing clouds.9 mph77%29.95 "HgN/A
9:30 PM55 °FPartly cloudy.9 mph77%29.95 "HgN/A
9:00 PM55 °FPassing clouds.7 mph72%29.95 "HgN/A
8:30 PM55 °FPartly cloudy.13 mph72%29.92 "HgN/A
8:00 PM57 °FPassing clouds.13 mph72%29.89 "HgN/A
7:30 PM57 °FPassing clouds.18 mph72%29.86 "HgN/A
7:00 PM57 °FPassing clouds.20 mph72%29.86 "HgN/A
6:30 PM57 °FPassing clouds.18 mph72%29.83 "HgN/A
6:00 PM59 °FPartly sunny.16 mph72%29.83 "HgN/A
5:30 PM59 °FBroken clouds.17 mph68%29.83 "HgN/A
5:00 PM61 °FBroken clouds.18 mph55%29.80 "HgN/A
4:30 PM61 °FPartly sunny.20 mph59%29.80 "HgN/A
4:00 PM61 °FPartly sunny.23 mph59%29.77 "HgN/A
3:30 PM63 °FPartly sunny.23 mph56%29.77 "HgN/A
3:00 PM63 °FBroken clouds.24 mph56%29.77 "HgN/A
2:30 PM63 °FBroken clouds.25 mph52%29.77 "HgN/A
2:00 PM63 °FPartly sunny.25 mph56%29.77 "HgN/A
1:30 PM63 °FPartly sunny.22 mph56%29.77 "HgN/A
1:00 PM63 °FPartly sunny.24 mph59%29.77 "HgN/A
12:30 PM61 °FPartly sunny.20 mph59%29.77 "HgN/A
12:00 PM61 °FPartly sunny.26 mph59%29.77 "HgN/A
11:30 AM61 °FPartly sunny.24 mph63%29.77 "HgN/A
11:00 AM61 °FPartly sunny.25 mph63%29.77 "HgN/A
Weather by CustomWeather, © 2015

See weather overviewHow to use our weather pages